TimeMDT,TemperatureF,Dew PointF,Humidity,Sea Level PressureIn,VisibilityMPH,Wind Direction,Wind SpeedMPH,Gust SpeedMPH,PrecipitationIn,Events,Conditions,WindDirDegrees,DateUTC
12:15 AM,37.4,21.6,53,30.26,10.0,SW,3.5,-,N/A,,Clear,220,2012-10-27 06:15:00
12:35 AM,37.8,21.9,53,30.26,10.0,WSW,5.8,-,N/A,,Clear,240,2012-10-27 06:35:00
1:15 AM,37.4,21.7,53,30.26,10.0,Calm,Calm,-,N/A,,Clear,0,2012-10-27 07:15:00
1:35 AM,35.8,20.8,55,30.24,10.0,Calm,Calm,-,N/A,,Clear,0,2012-10-27 07:35:00
1:55 AM,35.6,21.0,55,30.24,10.0,West,5.8,-,N/A,,Clear,270,2012-10-27 07:55:00
2:15 AM,35.4,20.8,55,30.24,10.0,Calm,Calm,-,N/A,,Clear,0,2012-10-27 08:15:00
2:35 AM,34.0,20.7,58,30.24,10.0,Calm,Calm,-,N/A,,Clear,0,2012-10-27 08:35:00
2:55 AM,33.3,20.5,59,30.23,10.0,West,4.6,-,N/A,,Clear,260,2012-10-27 08:55:00
3:15 AM,34.0,21.0,59,30.23,10.0,WSW,5.8,-,N/A,,Clear,250,2012-10-27 09:15:00
3:35 AM,34.0,20.8,59,30.23,10.0,West,4.6,-,N/A,,Clear,280,2012-10-27 09:35:00
3:55 AM,33.4,21.0,60,30.22,10.0,Calm,Calm,-,N/A,,Clear,0,2012-10-27 09:55:00
4:15 AM,33.1,20.8,61,30.22,10.0,West,3.5,-,N/A,,Clear,270,2012-10-27 10:15:00
4:35 AM,32.9,20.7,61,30.21,10.0,WSW,3.5,-,N/A,,Clear,240,2012-10-27 10:35:00
4:55 AM,33.1,21.0,61,30.22,10.0,WSW,4.6,-,N/A,,Clear,250,2012-10-27 10:55:00
5:15 AM,32.2,20.5,62,30.22,10.0,Calm,Calm,-,N/A,,Clear,0,2012-10-27 11:15:00
5:35 AM,32.0,20.5,63,30.23,10.0,Calm,Calm,-,N/A,,Clear,0,2012-10-27 11:35:00
5:55 AM,30.6,19.9,65,30.23,10.0,Calm,Calm,-,N/A,,Clear,0,2012-10-27 11:55:00
6:15 AM,31.3,20.3,64,30.24,10.0,Calm,Calm,-,N/A,,Clear,0,2012-10-27 12:15:00
6:35 AM,32.0,20.7,63,30.24,10.0,Calm,Calm,-,N/A,,Clear,0,2012-10-27 12:35:00
6:55 AM,30.2,19.9,66,30.24,10.0,WNW,3.5,-,N/A,,Clear,300,2012-10-27 12:55:00
7:15 AM,29.8,19.8,66,30.25,10.0,NW,3.5,-,N/A,,Clear,310,2012-10-27 13:15:00
7:35 AM,30.2,20.3,67,30.25,10.0,NW,3.5,-,N/A,,Clear,320,2012-10-27 13:35:00
8:15 AM,34.2,21.7,60,30.27,10.0,Calm,Calm,-,N/A,,Clear,0,2012-10-27 14:15:00
8:35 AM,35.6,21.6,57,30.27,10.0,Calm,Calm,-,N/A,,Clear,0,2012-10-27 14:35:00
8:55 AM,36.7,21.6,54,30.27,10.0,Calm,Calm,-,N/A,,Clear,0,2012-10-27 14:55:00
9:15 AM,38.1,21.7,52,30.28,10.0,North,4.6,-,N/A,,Clear,10,2012-10-27 15:15:00
9:35 AM,40.6,22.5,48,30.28,10.0,NNW,6.9,-,N/A,,Clear,340,2012-10-27 15:35:00
9:55 AM,42.3,22.6,46,30.27,10.0,North,5.8,-,N/A,,Clear,350,2012-10-27 15:55:00
10:15 AM,43.9,22.8,43,30.27,10.0,NE,4.6,-,N/A,,Clear,40,2012-10-27 16:15:00
10:35 AM,44.6,23.0,43,30.26,10.0,North,3.5,-,N/A,,Clear,350,2012-10-27 16:35:00
10:55 AM,46.0,23.9,42,30.26,10.0,Calm,Calm,-,N/A,,Clear,0,2012-10-27 16:55:00
12:15 PM,51.8,24.8,35,30.21,10.0,SSE,9.2,-,N/A,,Clear,150,2012-10-27 18:15:00
12:35 PM,53.6,25.0,33,30.19,10.0,South,5.8,-,N/A,,Clear,180,2012-10-27 18:35:00
12:55 PM,55.2,26.4,33,30.18,10.0,SE,6.9,-,N/A,,Clear,130,2012-10-27 18:55:00
1:15 PM,56.1,27.0,33,30.17,10.0,SE,5.8,-,N/A,,Clear,140,2012-10-27 19:15:00
1:55 PM,58.8,26.4,29,30.14,10.0,South,5.8,-,N/A,,Clear,170,2012-10-27 19:55:00
2:15 PM,59.9,27.1,29,30.13,10.0,SSE,9.2,-,N/A,,Clear,160,2012-10-27 20:15:00
2:35 PM,60.8,27.0,28,30.12,10.0,SSE,5.8,-,N/A,,Clear,150,2012-10-27 20:35:00
2:55 PM,62.2,25.3,25,30.11,10.0,South,6.9,-,N/A,,Clear,180,2012-10-27 20:55:00
3:15 PM,62.2,25.3,25,30.10,10.0,South,6.9,-,N/A,,Clear,170,2012-10-27 21:15:00
3:35 PM,62.6,25.9,25,30.10,10.0,SSE,8.1,-,N/A,,Clear,150,2012-10-27 21:35:00
3:55 PM,62.8,25.5,24,30.10,10.0,SE,9.2,-,N/A,,Clear,130,2012-10-27 21:55:00
4:15 PM,62.8,24.8,24,30.10,10.0,SE,8.1,-,N/A,,Clear,140,2012-10-27 22:15:00
4:35 PM,63.3,25.3,24,30.09,10.0,SE,9.2,-,N/A,,Clear,140,2012-10-27 22:35:00
4:55 PM,63.0,25.2,24,30.09,10.0,SSE,6.9,-,N/A,,Clear,160,2012-10-27 22:55:00
5:15 PM,62.8,24.8,24,30.09,10.0,SSE,8.1,-,N/A,,Clear,150,2012-10-27 23:15:00
5:35 PM,62.4,24.1,23,30.09,10.0,South,8.1,-,N/A,,Clear,170,2012-10-27 23:35:00
5:55 PM,61.7,25.0,25,30.09,10.0,SSE,5.8,-,N/A,,Clear,150,2012-10-27 23:55:00
6:15 PM,59.4,25.5,27,30.10,10.0,SE,4.6,-,N/A,,Clear,130,2012-10-28 00:15:00
6:35 PM,56.7,25.3,30,30.11,10.0,SE,4.6,-,N/A,,Clear,130,2012-10-28 00:35:00
7:15 PM,49.3,22.1,34,30.13,10.0,Calm,Calm,-,N/A,,Clear,0,2012-10-28 01:15:00
7:35 PM,48.7,22.1,35,30.13,10.0,WSW,4.6,-,N/A,,Clear,240,2012-10-28 01:35:00
7:55 PM,49.8,22.8,35,30.13,10.0,SW,5.8,-,N/A,,Clear,230,2012-10-28 01:55:00
8:15 PM,50.2,23.0,35,30.13,10.0,SW,6.9,-,N/A,,Clear,230,2012-10-28 02:15:00
8:35 PM,50.4,23.0,34,30.13,10.0,WSW,6.9,-,N/A,,Clear,250,2012-10-28 02:35:00
8:55 PM,49.3,23.0,36,30.14,10.0,WSW,8.1,-,N/A,,Clear,240,2012-10-28 02:55:00
9:15 PM,49.8,23.5,36,30.15,10.0,Calm,Calm,-,N/A,,Clear,0,2012-10-28 03:15:00
9:35 PM,47.5,23.2,38,30.15,10.0,NNW,3.5,-,N/A,,Clear,340,2012-10-28 03:35:00
9:55 PM,44.1,22.5,42,30.16,10.0,West,3.5,-,N/A,,Clear,270,2012-10-28 03:55:00
10:15 PM,44.1,22.6,43,30.16,10.0,West,3.5,-,N/A,,Clear,260,2012-10-28 04:15:00
10:35 PM,43.9,22.6,43,30.17,10.0,WSW,5.8,-,N/A,,Clear,250,2012-10-28 04:35:00
10:55 PM,45.0,23.0,42,30.18,10.0,Calm,Calm,-,N/A,,Clear,0,2012-10-28 04:55:00
11:15 PM,42.6,22.3,45,30.18,10.0,West,3.5,-,N/A,,Clear,270,2012-10-28 05:15:00
11:35 PM,41.5,22.5,47,30.18,10.0,WSW,3.5,-,N/A,,Clear,250,2012-10-28 05:35:00
11:55 PM,43.5,22.8,44,30.18,10.0,Calm,Calm,-,N/A,,Clear,0,2012-10-28 05:55:00